Wind_Speed
10 10 11 10 10 10 11 11 10 11 11 13 13 12 12 13 13 12 12 11 10 10 11 11 10 10 11 10 10 10 10 9 9 9 10 10 11 11 12 12 12 13 13 13
11 11 11 11 11 12 12 12 12 12 12 13 14 13 13 14 14 14 13 12 12 12 13 12 12 11 11 11 10 11 11 11 10 11 11 11 12 12 13 13 13 13 14 14
12 12 11 12 13 13 13 13 13 13 12 13 14 14 13 14 15 15 14 13 13 13 13 13 12 12 11 11 11 11 12 12 12 12 12 12 12 13 13 14 14 14 14 15
14 13 14 14 14 14 14 13 13 14 14 14 14 14 13 13 14 15 14 14 14 14 14 13 13 12 12 12 12 12 12 13 13 13 13 13 13 14 14 14 14 15 15 15
16 15 15 16 15 14 14 14 13 14 14 14 14 15 14 14 14 14 14 16 16 15 15 14 14 13 13 13 13 13 13 14 14 13 13 14 14 15 15 15 15 15 15 15
16 16 16 16 16 15 15 14 14 14 14 14 14 15 15 14 15 15 15 17 17 16 16 16 15 15 14 14 14 15 14 14 14 15 15 15 15 15 16 16 17 16 16 16
17 17 16 16 16 16 15 14 13 13 14 14 13 15 16 15 16 16 16 17 17 17 17 17 17 16 16 16 16 16 16 16 16 16 16 16 16 16 17 18 18 17 16 16
17 17 16 16 17 17 16 15 14 13 12 13 14 17 16 15 17 17 17 17 17 17 17 17 18 18 17 18 18 18 17 17 17 17 17 17 17 17 17 17 17 16 15 15
15 16 16 17 17 17 16 16 16 15 14 13 14 16 16 16 17 18 18 17 17 17 18 18 18 19 19 19 19 19 18 18 18 18 17 17 17 17 16 16 16 15 15 15
17 17 16 17 18 18 17 16 16 17 16 15 15 16 18 17 17 18 18 18 17 17 18 18 19 19 19 19 19 18 18 19 18 18 18 17 17 17 16 16 16 16 16 16
18 19 18 18 18 18 18 18 18 19 18 16 16 18 18 19 18 17 18 19 18 19 19 19 20 19 19 19 19 19 19 19 18 18 18 19 18 17 17 17 17 17 17 17
19 20 19 19 18 18 19 18 18 19 19 19 20 21 19 19 20 19 19 19 20 19 19 20 20 21 21 21 21 20 19 19 19 19 19 19 18 17 17 17 17 17 17 17
21 21 20 19 20 19 19 19 20 20 20 19 20 21 20 20 20 20 20 20 21 21 20 20 21 22 22 22 22 20 20 20 20 20 20 20 19 18 18 18 18 18 18 18
22 22 21 21 21 20 20 21 21 20 21 20 20 20 22 22 22 21 21 21 21 22 21 21 21 22 23 22 22 21 21 21 21 21 21 21 20 20 20 20 20 20 20 20
24 23 24 24 23 23 23 22 22 22 22 22 20 21 22 23 23 22 22 23 23 23 22 22 21 21 22 22 22 22 22 22 22 22 23 22 22 22 22 22 22 22 21 21
24 24 24 25 24 24 25 24 24 23 22 23 23 23 22 23 24 24 23 23 23 23 23 23 23 23 22 22 23 23 23 23 23 24 24 24 23 23 23 23 23 23 23 23
25 25 25 25 25 26 26 24 24 25 24 25 25 24 24 23 24 24 25 24 24 24 24 24 24 24 23 23 24 23 23 24 25 25 26 26 25 25 25 25 25 25 25 25
25 25 26 26 27 28 26 24 25 26 25 25 26 26 26 25 26 26 26 25 25 25 25 25 25 24 24 24 25 25 25 25 26 26 26 26 26 27 26 26 26 25 25 25
26 26 27 28 28 28 26 26 26 27 27 26 27 27 26 26 27 26 27 26 26 26 26 26 26 26 26 26 26 26 27 27 27 28 28 28 27 27 27 27 28 27 26 26
26 26 27 27 28 28 27 26 26 27 28 28 28 27 27 27 28 27 26 27 27 27 27 27 27 27 27 28 27 27 28 28 29 29 29 28 28 28 28 29 30 29 28 27
27 28 28 27 28 29 28 27 27 28 29 29 28 28 28 28 28 27 27 27 28 29 28 28 28 28 28 28 29 28 28 29 29 30 30 30 30 29 30 30 30 30 29 28
29 29 29 30 30 30 29 28 29 30 30 29 29 29 29 29 29 29 29 29 29 29 29 29 29 29 29 29 29 29 29 29 30 31 31 31 32 32 31 31 31 31 30 30
31 31 32 32 32 32 31 31 31 31 30 30 30 30 30 30 30 30 30 30 30 30 30 30 30 30 30 30 30 30 30 30 31 31 31 32 32 32 32 32 32 32 31 31
32 32 33 34 34 34 34 33 33 32 31 31 31 31 31 32 32 32 31 32 31 31 31 31 31 31 31 31 31 31 31 31 31 31 32 32 31 31 32 31 31 31 31 31
33 33 33 34 34 35 35 35 35 34 34 34 34 33 33 33 33 33 33 33 33 33 33 33 33 33 32 32 32 31 31 31 31 31 31 31 31 31 31 31 31 31 30 31
32 34 35 36 35 36 36 36 36 35 35 35 35 34 34 33 33 34 34 34 34 34 34 34 34 34 33 32 32 32 32 32 33 33 32 32 31 31 30 30 31 31 31 32
Wind_Direction
263 266 266 266 267 268 270 271 271 276 276 273 272 270 265 259 263 263 259 259 262 262 265 266 268 270 270 267 267 269 271 275 279 283 286 287 288 288 288 288 288 287 288 289
265 266 267 266 265 263 265 267 267 268 268 270 272 270 268 265 263 263 262 259 260 261 264 264 267 270 266 264 266 268 269 274 278 281 284 288 290 290 290 288 288 288 289 288
265 269 268 266 264 263 265 265 267 268 269 273 274 273 268 268 265 261 258 258 258 259 260 264 268 267 265 263 264 265 269 274 278 279 283 287 291 293 293 293 291 289 287 286
261 262 263 263 264 266 266 266 268 268 267 274 277 275 270 270 270 264 257 254 255 256 258 262 264 265 264 265 264 264 268 273 277 279 283 287 292 294 295 295 293 290 289 288
261 260 261 261 263 264 265 266 267 269 270 272 274 275 273 270 269 266 260 257 258 256 256 259 261 264 264 263 263 264 267 272 278 281 284 288 292 295 295 296 296 295 292 288
259 260 261 262 261 264 265 265 266 267 272 272 273 274 274 272 270 266 264 263 261 258 257 259 261 263 262 261 263 265 268 273 278 282 287 289 291 294 296 296 296 295 291 287
261 260 259 259 259 260 260 262 263 268 274 279 277 273 273 272 268 269 270 269 264 261 258 258 260 261 260 260 263 267 269 273 277 281 286 288 290 293 295 297 297 295 292 290
265 263 258 256 258 258 256 255 254 257 271 278 272 268 271 269 269 270 271 271 267 262 259 258 259 261 259 259 263 266 268 273 277 281 284 285 288 292 294 295 296 295 293 292
261 263 260 259 258 258 254 251 250 250 255 263 271 276 273 266 269 272 272 272 269 264 261 260 260 261 261 259 261 264 266 272 276 280 282 283 286 290 292 292 294 294 294 293
255 257 257 259 257 256 256 253 247 248 251 256 266 271 271 272 272 272 272 272 269 268 265 262 261 261 262 260 262 265 267 272 275 276 280 283 285 288 288 289 291 294 294 293
253 254 256 255 256 257 256 255 251 249 250 253 260 265 271 271 270 273 272 272 273 271 269 266 264 261 261 260 260 262 265 269 272 275 278 281 283 284 283 285 288 291 292 290
253 254 255 258 257 256 255 255 254 253 251 250 256 264 269 271 272 272 271 270 273 271 269 268 266 264 262 261 262 262 264 268 272 274 277 280 282 281 280 283 285 287 288 288
254 253 254 258 261 258 256 254 254 256 253 252 255 263 268 270 270 270 270 270 272 272 268 267 266 266 267 265 264 263 263 267 271 274 276 279 281 281 279 281 283 285 286 286
255 252 252 254 258 261 260 257 256 257 258 256 257 263 267 269 269 270 269 268 270 270 269 268 268 268 268 267 265 265 265 267 270 272 273 277 280 280 280 280 281 283 284 285
255 253 252 252 256 258 260 260 259 258 258 258 258 259 265 269 270 270 267 266 268 268 269 268 267 268 270 268 265 265 267 268 270 272 273 274 277 279 280 281 280 281 282 283
257 255 256 255 258 259 258 259 260 259 258 258 261 262 263 268 269 270 270 268 266 264 264 266 266 266 268 268 267 267 269 271 270 271 273 275 277 279 279 280 279 280 281 282
259 258 259 260 260 260 259 259 259 258 258 259 261 264 265 266 268 270 271 270 267 264 263 264 266 266 267 267 266 268 270 272 271 272 274 275 277 278 279 279 279 279 280 281
258 259 260 261 261 261 262 262 263 261 260 261 262 263 265 268 269 271 270 270 268 264 263 264 266 267 267 268 267 267 268 269 271 272 273 275 276 276 277 278 280 279 280 281
259 259 260 261 261 262 262 263 265 264 261 262 262 264 266 267 269 270 269 269 268 266 265 265 265 265 267 268 268 269 269 269 269 270 271 274 276 276 277 278 280 280 281 281
261 260 261 261 262 263 263 265 267 265 263 262 263 262 264 266 268 269 269 269 270 269 268 266 265 266 267 268 269 270 270 270 270 271 271 272 274 275 275 276 278 278 279 280
261 262 261 261 263 263 263 265 266 265 264 264 264 264 264 266 268 268 268 268 268 269 269 268 266 266 267 267 269 269 270 271 272 272 272 272 273 274 274 274 276 276 277 278
261 263 264 263 263 264 264 265 265 265 264 264 266 267 266 267 268 268 268 268 268 268 268 268 267 268 268 268 268 268 269 270 271 271 271 272 273 273 273 273 274 274 274 275
262 263 263 263 263 263 263 263 265 267 266 265 264 266 266 266 267 267 267 265 265 265 266 268 269 270 271 270 270 270 271 271 271 271 271 272 273 272 272 274 273 273 273 274
261 262 262 262 263 264 263 263 264 266 266 266 265 265 265 266 266 266 265 265 265 265 266 268 270 271 272 272 271 271 272 272 271 271 272 272 271 271 272 273 272 271 272 272
262 261 261 262 264 263 263 264 264 264 264 264 267 267 267 267 267 266 266 266 265 266 267 268 270 271 272 272 270 270 270 272 272 272 272 272 272 273 274 275 273 272 272 274
261 261 263 264 265 265 264 264 264 264 264 264 265 266 266 266 266 265 265 266 267 269 269 270 270 270 271 271 270 269 269 270 271 271 271 271 272 272 273 275 274 274 275 275
Height
5832 5833 5833 5833 5834 5834 5834 5834 5834 5834 5833 5833 5833 5833 5834 5834 5835 5836 5836 5837 5838 5838 5839 5839 5840 5840 5840 5840 5841 5842 5842 5843 5843 5843 5843 5843 5843 5842 5842 5842 5841 5841 5840 5840
5830 5830 5831 5830 5830 5831 5831 5831 5831 5831 5830 5830 5830 5830 5831 5831 5832 5833 5834 5834 5835 5836 5836 5836 5837 5838 5838 5838 5839 5839 5840 5841 5841 5841 5841 5840 5840 5840 5839 5839 5838 5838 5837 5837
5826 5827 5827 5827 5828 5828 5828 5828 5828 5828 5828 5827 5827 5827 5828 5829 5829 5830 5831 5832 5832 5833 5834 5834 5834 5835 5836 5836 5837 5837 5838 5838 5838 5838 5838 5838 5837 5837 5837 5836 5835 5835 5834 5833
5822 5823 5823 5824 5824 5824 5824 5825 5825 5825 5824 5824 5825 5824 5825 5825 5826 5827 5828 5829 5829 5830 5830 5831 5832 5832 5833 5833 5834 5835 5835 5835 5835 5835 5835 5835 5835 5834 5833 5833 5832 5831 5830 5830
5819 5819 5819 5820 5821 5821 5821 5822 5822 5822 5821 5822 5822 5822 5823 5822 5823 5824 5824 5825 5826 5827 5827 5828 5829 5830 5830 5831 5831 5832 5832 5832 5832 5832 5832 5832 5831 5831 5830 5829 5828 5828 5827 5826
5814 5815 5815 5816 5816 5817 5817 5818 5818 5818 5818 5819 5820 5819 5819 5820 5820 5820 5821 5821 5822 5823 5824 5825 5826 5826 5827 5827 5828 5828 5829 5829 5829 5829 5829 5828 5828 5827 5826 5825 5824 5823 5823 5822
5810 5810 5811 5811 5812 5813 5814 5815 5815 5815 5815 5816 5817 5816 5817 5817 5817 5817 5817 5817 5818 5819 5820 5821 5822 5822 5823 5824 5824 5825 5825 5825 5825 5825 5825 5824 5824 5823 5822 5821 5820 5819 5818 5817
5805 5806 5806 5807 5808 5808 5809 5810 5812 5812 5813 5813 5813 5812 5814 5813 5813 5814 5814 5814 5814 5815 5816 5817 5818 5818 5819 5820 5821 5821 5821 5821 5821 5821 5821 5821 5820 5819 5818 5817 5816 5815 5814 5813
5801 5802 5803 5803 5803 5804 5805 5805 5807 5808 5808 5809 5809 5809 5809 5809 5809 5809 5809 5810 5810 5810 5811 5812 5813 5814 5814 5816 5816 5816 5816 5817 5817 5817 5817 5816 5816 5815 5814 5813 5812 5811 5810 5809
5796 5797 5798 5798 5799 5800 5801 5801 5802 5803 5804 5805 5806 5805 5805 5805 5805 5805 5805 5805 5806 5806 5807 5808 5808 5809 5810 5811 5811 5812 5812 5813 5813 5813 5812 5812 5811 5811 5810 5809 5809 5808 5807 5806
5792 5793 5794 5794 5794 5795 5796 5797 5797 5799 5800 5801 5801 5803 5802 5801 5801 5801 5801 5801 5801 5801 5802 5803 5804 5804 5805 5805 5807 5807 5808 5808 5809 5809 5808 5808 5807 5806 5806 5805 5805 5804 5803 5802
5787 5788 5788 5789 5790 5790 5791 5792 5793 5794 5795 5796 5796 5799 5797 5797 5796 5797 5797 5797 5797 5797 5797 5798 5799 5799 5799 5800 5801 5802 5803 5803 5804 5804 5804 5803 5803 5802 5802 5801 5800 5800 5799 5798
5782 5783 5784 5784 5786 5786 5786 5787 5788 5789 5790 5790 5791 5795 5792 5792 5791 5792 5792 5792 5792 5792 5793 5793 5794 5794 5794 5795 5796 5797 5798 5798 5799 5799 5798 5798 5798 5798 5797 5797 5796 5795 5794 5794
5776 5777 5779 5780 5780 5780 5780 5781 5782 5783 5784 5785 5787 5787 5787 5787 5786 5787 5787 5787 5786 5786 5787 5788 5788 5788 5789 5790 5791 5791 5792 5793 5793 5793 5793 5793 5793 5792 5792 5792 5791 5791 5790 5789
5770 5772 5772 5773 5774 5774 5775 5776 5777 5778 5779 5780 5781 5781 5782 5781 5781 5781 5781 5781 5781 5781 5782 5782 5782 5783 5783 5784 5785 5785 5786 5787 5787 5788 5787 5787 5787 5787 5786 5786 5786 5785 5784 5784
5763 5765 5766 5767 5768 5768 5768 5770 5770 5772 5773 5774 5775 5775 5776 5775 5775 5775 5775 5775 5776 5776 5776 5776 5776 5777 5778 5778 5779 5780 5780 5781 5781 5782 5782 5781 5781 5781 5780 5780 5780 5779 5779 5778
5758 5758 5759 5761 5761 5761 5762 5765 5765 5766 5767 5768 5768 5770 5769 5768 5768 5769 5769 5769 5770 5770 5770 5770 5770 5770 5771 5772 5773 5773 5774 5774 5774 5775 5775 5775 5775 5774 5774 5774 5773 5773 5772 5772
5752 5752 5752 5753 5755 5754 5759 5758 5758 5759 5760 5761 5761 5762 5762 5762 5761 5762 5762 5762 5763 5763 5764 5764 5764 5764 5765 5765 5766 5766 5767 5767 5768 5768 5768 5768 5768 5767 5767 5767 5766 5766 5766 5765
5745 5746 5746 5747 5747 5748 5751 5751 5752 5752 5753 5754 5754 5755 5755 5754 5754 5754 5755 5755 5756 5756 5757 5757 5758 5758 5758 5759 5759 5759 5760 5760 5760 5760 5760 5760 5761 5760 5760 5760 5759 5759 5758 5758
5738 5738 5739 5739 5740 5741 5744 5744 5744 5746 5746 5747 5747 5747 5747 5747 5748 5748 5748 5748 5748 5749 5749 5750 5750 5751 5751 5751 5751 5752 5752 5752 5752 5752 5752 5752 5752 5752 5752 5752 5752 5751 5751 5751
5731 5731 5732 5732 5732 5733 5736 5737 5737 5739 5739 5739 5739 5739 5740 5740 5740 5740 5740 5741 5741 5741 5741 5742 5743 5743 5743 5743 5743 5743 5743 5744 5744 5743 5743 5743 5743 5743 5743 5743 5743 5743 5743 5743
5723 5724 5724 5725 5725 5728 5728 5728 5729 5729 5729 5730 5731 5731 5732 5732 5732 5732 5732 5733 5733 5733 5733 5734 5734 5735 5735 5735 5735 5735 5735 5735 5735 5735 5734 5734 5734 5734 5734 5734 5734 5734 5734 5734
5715 5716 5716 5717 5719 5719 5719 5719 5719 5720 5721 5721 5722 5723 5723 5723 5723 5723 5724 5724 5724 5725 5725 5725 5726 5726 5726 5726 5726 5726 5727 5726 5726 5726 5725 5725 5725 5725 5724 5724 5725 5725 5725 5725
5706 5707 5707 5707 5708 5709 5710 5710 5711 5711 5711 5712 5713 5713 5714 5714 5714 5714 5714 5715 5716 5716 5717 5717 5717 5717 5717 5717 5717 5718 5717 5717 5717 5717 5717 5716 5716 5716 5715 5715 5715 5715 5716 5716
5698 5698 5697 5697 5699 5699 5700 5701 5701 5701 5702 5703 5703 5704 5704 5704 5704 5705 5705 5706 5706 5707 5707 5707 5707 5707 5707 5707 5707 5708 5708 5707 5707 5708 5707 5707 5707 5706 5706 5706 5706 5706 5707 5707
5688 5688 5687 5687 5689 5688 5690 5690 5690 5691 5692 5692 5693 5694 5694 5694 5694 5695 5695 5696 5696 5697 5697 5697 5697 5697 5697 5697 5697 5698 5698 5697 5698 5698 5698 5698 5698 5697 5697 5697 5697 5697 5698 5698